Location: Valley View Observatory
(41.0081°N, 76.5874°W)
Time: 05:31:33
(UTC-04:00)

Daily predictions for brighter satellites

Satellite Brightness Start Highest point End
(mag) Time Altitude Azimuth Time Altitude Azimuth Time Altitude Azimuth
Cosmos 2219 Rocket 4.5 00:02:10 10° W 00:06:08 19° NW 00:10:08 10° N
CZ-2C R/B 4.4 00:20:41 32° NNE 00:20:41 32° NNE 00:23:31 10° N
Cosmos 2184 Rocket 4.5 00:15:47 10° N 00:21:02 57° NNE 00:21:02 57° NNE
Terra 4.3 00:23:55 15° WNW 00:23:55 15° WNW 00:25:30 10° NW
ATLAS 3B R/B 2.9 00:29:07 10° NNW 00:35:08 63° NNE 00:35:08 63° NNE
Cosmos 1607 4.4 00:33:24 10° NNW 00:38:30 59° NNW 00:38:30 59° NNW
ATLAS CENTAUR R/B 4.1 00:42:33 17° N 00:42:33 17° N 00:43:57 10° N
Cosmos 2369 Rocket 3.4 00:36:22 10° N 00:40:34 36° NNE 00:40:34 36° NNE
Cosmos 1943 Rocket 3.9 00:44:22 10° N 00:49:01 26° NE 00:49:01 26° NE
USA 238 DEB 3.9 00:53:10 10° NNW 00:59:42 69° NNE 00:59:42 69° NNE
USA 238 3.9 00:53:16 10° NNW 00:59:49 69° NNE 00:59:49 69° NNE
Cosmos 2154 Rocket 4.5 00:55:22 10° N 01:00:21 56° NNE 01:00:21 56° NNE
SL-16 R/B 3.9 01:04:06 25° WNW 01:04:23 25° NW 01:09:04 10° N
CZ-2C R/B 4.0 01:22:03 10° N 01:25:58 34° NW 01:25:58 34° NW
Cosmos 2181 Rocket 4.3 01:46:45 65° N 01:46:45 65° N 01:52:12 10° N
Cosmos 2218 Rocket 4.4 01:41:09 10° N 01:46:29 56° NE 01:46:29 56° NE
COSMOS 2455 3.8 01:47:55 10° NNW 01:53:37 41° NE 01:54:22 40° ENE
SL-8 Rocket 4.3 01:51:04 10° N 01:56:08 62° N 01:56:08 62° N
Cosmos 1943 4.1 01:58:32 43° NNW 01:58:32 43° NNW 02:02:50 10° NNE
NOSS 3-4 (A) 3.8 01:59:15 59° ENE 01:59:15 59° ENE 02:04:32 10° NE
NOSS 3-4 (C) 3.9 01:59:22 59° ENE 01:59:22 59° ENE 02:04:39 10° NE
ATLAS 2AS CENTAUR R/B 4.3 01:55:31 23° W 01:59:08 33° NW 02:06:19 10° NNE
NOSS 3-2 (A) 3.9 02:03:38 10° NW 02:11:09 82° WSW 02:11:09 82° WSW
CZ-2D R/B 4.4 02:11:43 10° ENE 02:14:15 13° E 02:14:59 13° E
Cosmos 2369 Rocket 4.2 02:20:43 10° NW 02:22:21 18° WNW 02:22:21 18° WNW
BREEZE M DEB (TANK) 4.2 02:06:25 10° WNW 02:28:18 69° SW 02:28:58 67° SSW
Cosmos 1943 Rocket 3.5 02:27:36 10° NW 02:30:31 29° NW 02:30:31 29° NW
Nadezhda 3 Rocket 4.2 02:35:15 63° ESE 02:35:32 63° E 02:41:48 10° NNE
Cosmos 2112 Rocket 4.3 02:45:01 62° N 02:45:01 62° N 02:49:26 10° NNE
Aureole 1 Rocket 4.2 02:49:14 41° N 02:49:14 41° N 02:51:59 10° NNE
Lacrosse 5 rocket 2.7 02:52:20 42° ENE 02:52:20 42° ENE 02:55:32 10° NE
AQUA 4.3 02:52:03 10° NNE 02:56:10 58° ENE 02:56:10 58° ENE
USA 215 3.4 02:52:45 10° NE 02:59:12 65° NW 03:00:37 52° W
Cosmos 1624 Rocket 4.4 02:54:11 10° NNW 02:59:22 60° ENE 02:59:56 56° E
COSMOS 2406 3.2 03:02:16 77° WNW 03:02:16 77° WNW 03:07:59 10° NNE
Cosmos 1656 Rocket 4.4 03:03:51 10° NNW 03:07:22 38° NW 03:07:22 38° NW
IRS-P3 4.1 03:05:13 10° N 03:10:22 69° WNW 03:10:22 69° WNW
Cosmos 1825 Rocket 4.0 03:11:55 60° NE 03:11:55 60° NE 03:15:41 10° NNE
NOSS 2-2 (E) 4.1 03:12:11 56° NE 03:12:11 56° NE 03:16:00 10° NE
Cosmos 2056 Rocket 3.6 03:08:02 10° NNW 03:13:23 75° ENE 03:14:02 65° SE
Spot 4 Rocket 4.3 03:09:44 10° NNE 03:14:51 58° E 03:15:25 55° SE
ADEOS Rocket 3.6 03:09:58 10° NNE 03:16:04 56° E 03:18:33 37° SSE
Cosmos 1680 Rocket 4.4 03:16:50 37° WNW 03:16:50 37° WNW 03:21:27 10° N
USA 32 4.3 03:17:06 54° SE 03:17:55 62° E 03:23:06 10° NNE
Cosmos 1821 Rocket 3.8 03:13:29 10° N 03:19:37 89° W 03:20:58 58° S
RESURS DK-1 3.8 03:21:41 29° NNW 03:21:41 29° NNW 03:24:30 10° N
CBERS-1 4.0 03:15:43 10° N 03:20:41 66° WNW 03:20:41 66° WNW
CENTAUR R/B 3.1 03:15:28 10° NW 03:23:26 85° NE 03:31:54 10° SE
NOAA 9 4.5 03:20:10 10° NNE 03:25:36 86° WNW 03:26:12 71° SSW
Cosmos 2239 Rocket 4.3 03:22:04 10° N 03:28:13 75° W 03:29:25 58° SSW
USA 267 3.5 03:24:40 10° ESE 03:31:09 70° NE 03:37:40 10° NW
SL-27 R/B 4.1 03:33:10 28° NNW 03:33:10 28° NNW 03:35:18 10° N
Cosmos 1470 3.7 03:30:07 10° N 03:33:52 44° ENE 03:34:35 39° ESE
Resurs 1-4 Rocket 2.1 03:28:50 10° NNE 03:34:08 76° ESE 03:35:17 55° S
Cosmos 1934 Rocket 3.9 03:29:47 10° N 03:36:07 85° W 03:38:36 40° S
Cosmos 1535 Rocket 4.4 03:32:14 10° NNW 03:38:23 67° W 03:39:47 51° SSW
IRS-1D 3.5 03:33:08 10° NNE 03:38:24 85° ESE 03:39:35 56° S
COSMOS 2455 4.0 03:34:06 10° NW 03:37:27 27° WNW 03:37:27 27° WNW
Cosmos 1605 Rocket 4.1 03:34:15 10° N 03:40:27 72° E 03:44:26 23° SSE
SL-16 R/B 2.4 03:39:57 39° S 03:42:23 76° WSW 03:48:35 10° NNW
ARIANE 5 R/B 2.5 03:38:13 10° NNE 03:43:29 88° E 03:44:46 53° S
ADEOS 3.5 03:39:23 10° NNE 03:44:37 89° WNW 03:45:53 54° SSW
NPP 4.4 03:42:22 10° N 03:47:15 36° WNW 03:47:51 35° W
Cosmos 1452 Rocket 3.9 03:42:52 10° NNW 03:48:06 63° ENE 03:53:18 10° SSE
NOSS 2-2 (D) 3.7 03:47:56 54° WNW 03:48:07 55° NW 03:52:42 10° NNE
USA 161 3.7 03:48:07 21° E 03:48:55 24° ENE 03:51:17 10° NNE
Cosmos 1953 2.9 03:46:40 10° NNW 03:49:46 45° NW 03:49:46 45° NW
UNKNOWN OBJECT B 3.4 03:47:54 10° NNE 03:51:52 54° E 03:52:52 42° SSE
Cosmos-2242 3.2 03:49:05 10° N 03:53:30 73° E 03:55:11 37° SSE
Cosmos 1697 Rocket 4.4 03:49:11 10° N 03:54:15 33° ENE 03:59:16 10° ESE
CZ-2D R/B 2.0 03:49:36 10° N 03:54:53 72° WNW 03:56:19 48° SW
Cosmos 1733 3.1 03:52:09 10° N 03:55:57 83° E 03:56:19 71° SSE
MOS 1 Rocket 4.3 03:53:34 10° NNE 03:57:42 40° E 04:00:29 19° SSE
Cosmos 921 Rocket 3.6 03:54:42 10° NNW 03:58:27 43° W 03:58:27 43° W
MOZ.5/SAFIR/RUBIN 5/SL-8 3.9 04:01:45 16° SSE 04:05:22 75° ENE 04:10:05 10° N
Cosmos 2278 3.7 04:00:35 10° NNW 04:06:20 82° ENE 04:12:03 10° SSE
NOSS 2-2 (C) 4.3 04:05:48 34° WNW 04:06:36 37° NW 04:11:00 10° NNE
Cosmos 1758 Rocket 4.0 04:06:30 40° W 04:06:40 40° WNW 04:10:47 10° N
Cosmos 839 Rocket 4.1 04:03:00 10° NW 04:09:21 70° WSW 04:16:57 10° SSE
COSMOS 2487 2.3 04:10:22 71° SW 04:10:40 78° WNW 04:14:15 10° NNE
EXPRESS MD2 4.0 04:05:33 10° WNW 04:11:43 60° NNE 04:14:52 10° ESE
Cosmos 2369 3.6 04:09:16 10° NNW 04:15:02 87° WSW 04:20:46 10° SSE
Cosmos 1818 4.3 04:14:38 30° W 04:16:41 42° NW 04:21:51 10° NNE
Cosmos 1656 3.8 04:13:24 10° NNW 04:18:50 71° ENE 04:24:15 10° SSE
CZ-2D R/B 3.2 04:16:13 10° N 04:20:16 82° WNW 04:21:47 37° SSW
Meteor 2-15 4.4 04:20:54 23° SSW 04:24:57 75° W 04:31:06 10° N
Cosmos 1833 Rocket 2.8 04:21:58 22° SSW 04:25:37 74° ESE 04:31:14 10° NNE
Cosmos 1269 Rocket 4.2 04:23:54 20° S 04:27:33 72° ESE 04:32:49 10° NNE
Cosmos 1980 Rocket 3.8 04:24:06 10° N 04:29:24 38° ENE 04:34:38 10° SE
Lacrosse 5 rocket 3.2 04:28:02 17° WNW 04:30:33 26° NNW 04:34:28 10° NNE
Cosmos 2082 Rocket 2.2 04:27:15 23° SSW 04:30:56 88° ESE 04:36:41 10° NNE
GEOS 3 Rocket 4.0 04:25:58 10° NNE 04:31:06 53° NW 04:34:03 25° WSW
DNEPR-1 R/B 3.8 04:29:04 10° NW 04:33:04 42° WSW 04:37:21 10° S
ADEOS II 3.2 04:29:37 10° NNE 04:34:37 43° E 04:39:35 10° S
Meteor 2-15 Rocket 4.4 04:30:02 18° SSW 04:34:48 75° W 04:40:58 10° N
Meteor 2-5 Rocket 3.9 04:37:49 20° SSW 04:41:49 60° WNW 04:47:36 10° N
CZ-4B R/B 4.3 04:37:21 10° NNE 04:42:25 42° E 04:47:26 10° S
Landsat 4 3.5 04:42:44 10° S 04:46:27 73° WSW 04:50:12 10° NNW
Cosmos 2061 Rocket 4.0 04:42:12 10° N 04:48:27 88° E 04:54:38 10° S
Cosmos 1727 Rocket 4.5 04:45:02 20° SW 04:48:54 41° WNW 04:54:43 10° N
Cosmos 1378 3.8 04:49:57 24° SW 04:51:34 36° WNW 04:55:04 10° N
Cosmos 389 Rocket 4.1 04:49:10 10° NW 04:51:42 19° W 04:51:42 19° W
Cosmos 158 Rocket 3.9 04:48:19 16° SSW 04:52:17 76° WNW 04:57:29 10° NNE
Cosmos 2098 Rocket 4.2 04:51:00 10° NW 04:51:55 14° WNW 04:51:55 14° WNW
GPS 2-05 Rocket1 3.8 04:52:41 23° SW 04:54:07 32° S 04:57:17 10° ESE
Cosmos 1707 4.1 04:53:46 20° WSW 04:55:00 23° WNW 04:58:09 10° NNW
Cosmos 2016 Rocket 4.2 04:48:56 10° N 04:55:13 78° E 05:01:33 10° S
Meteor 1-16 Rocket 4.3 04:52:35 10° NNW 04:57:42 47° W 05:02:44 10° SSW
Meteor 2-1 Rocket 4.3 04:52:21 10° N 04:58:03 88° W 05:03:51 10° S
CZ-4B R/B 3.2 04:56:33 10° NNE 05:00:57 82° E 05:05:27 10° S
ADEOS Rocket 4.3 04:56:24 10° NNW 05:01:15 25° WNW 05:05:31 14° WSW
Okean 3 Rocket 3.7 04:57:49 10° S 05:02:13 76° E 05:06:39 10° N
In-Cosmos 22 4.0 05:04:01 10° S 05:09:20 84° W 05:14:38 10° N
Cosmos 1076 Rocket 4.0 05:06:16 10° S 05:10:26 61° E 05:14:38 10° NNE
Resurs 1-4 Rocket 3.9 05:10:30 10° NNW 05:13:18 15° WNW 05:16:07 10° W
CENTAUR R/B 4.1 05:07:33 10° WNW 05:13:30 23° WSW 05:19:39 10° SSW
Cosmos 1459 Rocket 4.2 05:08:08 10° NNW 05:14:06 53° W 05:20:09 10° SSW
USA 267 3.8 05:08:41 10° S 05:14:27 33° SW 05:20:14 10° WNW
BREEZE-M DEB (TANK) 4.4 05:07:36 10° SW 05:15:37 41° SSE 05:18:53 10° E
Okean O Rocket 1.6 05:13:57 10° N 05:18:21 66° WNW 05:22:42 10° SSW
Cosmos 1802 Rocket 4.1 05:12:19 10° NNW 05:18:37 59° W 05:24:50 10° S
USA 161 3.6 05:18:45 12° W 05:18:46 12° W 05:19:50 10° WNW
NOSS 8 (H) 4.4 05:16:31 11° SW 05:19:42 80° NW 05:23:16 10° NNE
Orbus 7S? 3.3 05:17:47 10° WNW 05:20:24 28° SW 05:22:45 10° S
Gbstr 26 Del rocket 4.5 05:15:31 10° NW 05:23:19 77° NE 05:29:49 10° ESE
CZ-2C R/B 3.6 05:24:07 10° S 05:28:33 81° WSW 05:33:03 10° NNW
Cosmos 1725 Rocket 4.0 05:22:22 10° N 05:28:40 83° W 05:34:58 10° S
Abrixas 3.6 05:27:51 10° NW 05:30:33 42° NNE 05:33:15 10° E
Cosmos 2360 4.2 05:26:11 10° NNW 05:31:56 85° WSW 05:37:39 10° SSE
Meteor 1-24 Rocket 4.4 05:27:57 10° SW 05:32:58 36° WNW 05:38:12 10° N
Cosmos 1408 Rocket 3.7 05:32:25 10° S 05:36:53 83° E 05:41:22 10° N
Cosmos 1697 Rocket 3.2 05:33:07 10° NW 05:38:11 35° WSW 05:43:13 10° S
OE (NEXTSAT) 4.4 05:34:53 10° WSW 05:38:26 87° NNW 05:42:00 10° ENE
